This is the latest recevied weather packets stored in our database for station/object WX1N. If no packets are shown the sender has not sent any weather packets the latest 10 day(s).
| Time | Temp. | Humidity | Pressure | Rain* | Wind** | Luminosity | Snow |
|---|---|---|---|---|---|---|---|
| 1777347603 | 6.67° C | 81% | 1022.2 hPa | 0 mm | - | - | - |
| 1777347303 | 7.22° C | 81% | 1022.2 hPa | 0 mm | - | - | - |
| 1777347003 | 7.22° C | 80% | 1022.1 hPa | 0 mm | - | - | - |
| 1777346704 | 7.78° C | 79% | 1022.1 hPa | 0 mm | - | - | - |
| 1777346403 | 7.78° C | 79% | 1022.1 hPa | 0 mm | - | - | - |
| 1777346104 | 7.78° C | 77% | 1022.2 hPa | 0 mm | - | - | - |
| 1777345803 | 7.78° C | 77% | 1022.3 hPa | 0 mm | - | - | - |
| 1777345503 | 7.78° C | 76% | 1022.3 hPa | 0 mm | - | - | - |
| 1777345204 | 8.33° C | 76% | 1022.3 hPa | 0 mm | - | - | - |
| 1777344903 | 8.33° C | 75% | 1022.3 hPa | 0 mm | - | - | - |
| 1777344604 | 8.89° C | 75% | 1022.3 hPa | 0 mm | - | - | - |
| 1777344303 | 8.89° C | 73% | 1022.4 hPa | 0 mm | - | - | - |
| 1777344004 | 9.44° C | 73% | 1022.3 hPa | 0 mm | - | - | - |
| 1777343703 | 9.44° C | 71% | 1022.3 hPa | 0 mm | - | - | - |
| 1777343403 | 10° C | 69% | 1022.4 hPa | 0 mm | - | - | - |
| 1777343104 | 10° C | 70% | 1022.5 hPa | 0 mm | - | - | - |
| 1777342803 | 10° C | 71% | 1022.6 hPa | 0 mm | - | - | - |
| 1777342504 | 10° C | 70% | 1022.5 hPa | 0 mm | - | - | - |
| 1777342203 | 10.56° C | 69% | 1022.5 hPa | 0 mm | - | - | - |
| 1777341903 | 11.11° C | 68% | 1022.4 hPa | 0 mm | - | - | - |
| 1777341604 | 11.11° C | 64% | 1022.3 hPa | 0 mm | - | - | - |
| 1777341303 | 11.67° C | 60% | 1022.2 hPa | 0 mm | - | - | - |
| 1777341004 | 11.67° C | 62% | 1022.2 hPa | 0 mm | - | - | - |
| 1777340703 | 12.22° C | 60% | 1022.2 hPa | 0 mm | - | - | - |
| 1777340404 | 12.78° C | 58% | 1022.3 hPa | 0 mm | - | - | - |
* Rain latest hour (hover to see other rain measurements)
** Current wind speed in m/s (hover to see current wind gust speed)